Regional Weather Roundup
Issued by NWS

Home | Current Version | Previous Version | Graphics & Text | Print | Product List | Glossary On
Versions: 1 2 3 4 5 6 7 8 9 10 11 12 13 14 15 16 17 18 19 20 21 22 23 24 25 26 27 28 29 30 31 32 33 34 35 36 37 38 39 40 41 42 43 44 45 46 47 48 49 50
817
ASUS45 KABQ 191310
RWRNM
NEW MEXICO REGIONAL WEATHER ROUNDUP
NATIONAL WEATHER SERVICE ALBUQUERQUE NM
600 AM MST FRI JAN 19 2018

NOTE: "FAIR" MEANS FEW OR NO CLOUDS BELOW 12,000 FEET AGL WITH NO
       SIGNIFICANT WEATHER OR OBSTRUCTIONS TO VISION.

      THIS PRODUCT IS RELEASED AS TWO VERSIONS.  ONE VERSION NEAR
      THE TOP OF THE HOUR CONTAINING PRELIMINARY DATA FROM ALBUQUERQUE
      AND OTHER STATIONS.  A FINAL VERSION WITH ADDITIONAL DATA IS
      ISSUED ABOUT 10 MINUTES AFTER THE HOUR.

NMZ501-503-504-510>518-191400-
NORTHWEST PLATEAU/NORTHCENTRAL MOUNTAINS

CITY           SKY/WX    TMP DP  RH WIND       PRES   REMARKS
FARMINGTON     FAIR      24  16  71 E10       30.13S WCI  14
LOS ALAMOS     FAIR      32   9  37 CALM      30.12R
SANTA FE       FAIR      26  11  52 NW5       30.10R WCI  20
TAOS           FAIR      15   3  59 NE6       30.14S WCI   6
ANGEL FIRE     FAIR       8   1  75 CALM      30.14S

$$
NMZ402-403-502-505>509-191400-
WESTCENTRAL MOUNTAINS/SOUTHWEST MOUNTAINS

CITY           SKY/WX    TMP DP  RH WIND       PRES   REMARKS
GALLUP         FAIR      14   8  77 NE5       30.16S WCI   6
GRANTS         FAIR      15   7  71 NW8       30.19R WCI   4
SILVER CITY    FAIR      27  13  56 N8        30.15S WCI  19

$$
NMZ407-409-411-412-191400-
SOUTHERN DESERTS

CITY           SKY/WX    TMP DP  RH WIND       PRES   REMARKS
DEMING         FAIR      20   7  57 W5        30.16R WCI  13
LAS CRUCES     FAIR      22   8  54 CALM      30.17R
HOLLOMAN AFB   FAIR      20   4  49 CALM      30.19R
ALAMOGORDO     FAIR      23   5  46 CALM      30.17R
T OR C         FAIR      27   8  44 W6        30.15R WCI  20

$$
NMZ519>523-191400-
CENTRAL VALLEYS/CENTRAL HIGHLANDS

CITY           SKY/WX    TMP DP  RH WIND       PRES   REMARKS
ALBUQUERQUE    MOCLDY    30  10  43 S6        30.14R WCI  24
DOUBLE EAGLE   CLEAR     19   9  63 CALM      30.13
MORIARTY ARPT  FAIR      14   3  63 CALM      30.11S
CLINES CORNERS FAIR      30  13  49 NW23      30.06F WCI  17
BELEN          FAIR      20   7  57 W5        30.14S WCI  14
SOCORRO        FAIR      22   6  49 CALM      30.15S

$$
NMZ524>526-539-540-191400-
SOUTHCENTRAL MOUNTAINS

CITY           SKY/WX    TMP DP  RH WIND       PRES   REMARKS
RUIDOSO        FAIR      32   7  34 W13       30.12S WCI  22

$$
NMZ527>531-191400-
NORTHEAST HIGHLANDS/NORTHEAST PLAINS

CITY           SKY/WX    TMP DP  RH WIND       PRES   REMARKS
LAS VEGAS      FAIR      40   5  23 NW6       30.00S
RATON          FAIR      18   7  62 NE8       29.96S WCI   8
CLAYTON        FAIR      40   4  22 W6        29.89S

$$
NMZ532>537-191400-
EASTCENTRAL PLAINS

CITY           SKY/WX    TMP DP  RH WIND       PRES   REMARKS
TUCUMCARI      FAIR      28  12  51 W7        29.93F WCI  21
CANNON AFB     FAIR      33  12  40 W12       30.00R WCI  25
CLOVIS AIRPORT FAIR      37  12  35 W17       29.98S WCI  27

$$
NMZ028-029-538-191400-
SOUTHEAST PLAINS

CITY           SKY/WX    TMP DP  RH WIND       PRES   REMARKS
ROSWELL        FAIR      21   9  59 N5        30.02F WCI  15
ARTESIA        FAIR      23  12  63 SW8       30.05S WCI  14
CARLSBAD       FAIR      15   8  73 S5        30.05R WCI   8
HOBBS          CLEAR     19  12  73 S8        30.06R WCI   9


$$




USA.gov is the U.S. government's official web portal to all federal, state and local government web resources and services.